Accueil
METAR-TAF:

METAR-TAF

Aéroports :

Lyndonville, Vermont, États-Unis

latitude: 44-34-09N, longitude: 072-01-05W, altitude: 362 m

Observation

Le bulletin a été fait il y a 12 minutes, à 20:55 UTC
Vent 8 kt de sud-ouest avec des rafales jusqu'à 14 kt
Température 19°C
Humidité 30%
Pression 1018 hPa
Visibilité: 16.1 km
Ciel clair

METAR: KCDA 242055Z AUTO 22008G14KT 10SM CLR 19/01 A3007 RMK AO2 T01940005

Heure: 17:07 (21:07 UTC)


TAF: absent

Observations et prévisions météorologiques de plus de 4000 aéroports (messages METAR et TAF).

Les stations disponibles sont représentées par des disques jaunes et rouges sur la carte.

Passer la souris dessus pour voir le nom de la station.

Cliquer dessus pour voir les observations et prévisions météorologiques.

Pour changer de carte: cliquez sur les boutons verts avec une croix noire pour zoomer, sur le bouton vert avec un tiret pour effectuer un zoom arrière, ou sur les flèches vertes pour les cartes adjacentes.


METAR-TAF: